This is the latest recevied weather packets stored in our database for station/object SV9TNF-4. If no packets are shown the sender has not sent any weather packets the latest 10 day(s).
| Time | Temp. | Humidity | Pressure | Rain* | Wind** | Luminosity | Snow |
|---|---|---|---|---|---|---|---|
| 1777550692 | 23.33° C | 66% | 1016.3 hPa | 0 mm | 9.83 m/s, 110° | - | - |
| 1777550392 | 23.89° C | 63% | 1016.3 hPa | 0 mm | 3.13 m/s, 163° | - | - |
| 1777550092 | 23.89° C | 63% | 1016.3 hPa | 0 mm | 3.13 m/s, 163° | - | - |
| 1777549792 | 23.89° C | 63% | 1016.3 hPa | 0 mm | 3.13 m/s, 163° | - | - |
| 1777549492 | 23.33° C | 64% | 1016.6 hPa | 0 mm | 8.05 m/s, 159° | - | - |
| 1777549191 | 23.33° C | 64% | 1016.6 hPa | 0 mm | 8.05 m/s, 159° | - | - |
| 1777548891 | 23.33° C | 64% | 1016.6 hPa | 0 mm | 8.05 m/s, 159° | - | - |
| 1777548591 | 22.78° C | 61% | 1016.6 hPa | 0 mm | 8.05 m/s, 128° | - | - |
| 1777548291 | 22.78° C | 61% | 1016.6 hPa | 0 mm | 8.05 m/s, 128° | - | - |
| 1777547991 | 22.78° C | 61% | 1016.6 hPa | 0 mm | 8.05 m/s, 128° | - | - |
| 1777547691 | 22.78° C | 62% | 1016.6 hPa | 0 mm | 6.26 m/s, 99° | - | - |
| 1777547391 | 22.78° C | 62% | 1016.6 hPa | 0 mm | 6.26 m/s, 99° | - | - |
| 1777547091 | 22.78° C | 62% | 1016.6 hPa | 0 mm | 6.26 m/s, 99° | - | - |
| 1777546791 | 22.78° C | 62% | 1016.9 hPa | 0 mm | 4.92 m/s, 143° | - | - |
| 1777546491 | 22.78° C | 62% | 1016.9 hPa | 0 mm | 4.92 m/s, 143° | - | - |
| 1777546190 | 22.78° C | 62% | 1016.9 hPa | 0 mm | 4.92 m/s, 143° | - | - |
| 1777545891 | 21.67° C | 65% | 1016.9 hPa | 0 mm | 4.92 m/s, 153° | - | - |
| 1777545591 | 21.67° C | 65% | 1016.9 hPa | 0 mm | 4.92 m/s, 153° | - | - |
| 1777545290 | 21.67° C | 65% | 1016.9 hPa | 0 mm | 4.92 m/s, 153° | - | - |
| 1777544990 | 22.22° C | 63% | 1016.9 hPa | 0 mm | 8.05 m/s, 152° | - | - |
| 1777544690 | 22.22° C | 63% | 1016.9 hPa | 0 mm | 8.05 m/s, 152° | - | - |
| 1777544390 | 22.22° C | 63% | 1016.9 hPa | 0 mm | 8.05 m/s, 152° | - | - |
| 1777544090 | 22.22° C | 63% | 1017.3 hPa | 0 mm | 8.05 m/s, 111° | - | - |
| 1777543790 | 22.22° C | 63% | 1017.3 hPa | 0 mm | 8.05 m/s, 111° | - | - |
| 1777543490 | 22.22° C | 63% | 1017.3 hPa | 0 mm | 8.05 m/s, 111° | - | - |
* Rain latest hour (hover to see other rain measurements)
** Current wind speed in m/s (hover to see current wind gust speed)